Location: Apeadero de Los Molinos-Guadarrama
(40.7091°N, 4.0689°W)
Time: 20:29:13
(UTC+00:00)

Tiangong - Pass Details

Date: 01 October 2021
Orbit: 382 x 385 km, 41.5° (Epoch: 16 October)

Event Time Altitude Azimuth Distance (km) Brightness Sun altitude
Exits shadow 03:50:13 17° 84° (E) 1,045 4.0 -27.4°
Drops below altitude 10° 03:51:06 10° 82° (E) 1,399 4.8 -27.2°
Sets 03:53:11 0° 79° (E) 2,252 6.2 -26.8°
